Location: Rio Negrinho
(26.2394°S, 49.4999°W)
Time: 12:21:54
(UTC+00:00)

NOAA 6 - Pass Details

Date: 03 October 2020
Orbit: 773 x 786 km, 98.7° (Epoch: 26 October)

Event Time Altitude Azimuth Distance (km) Brightness Sun altitude
Rises 07:35:37 0° 44° (NE) 3,256 7.7 -18.4°
Reaches altitude 10° 07:38:19 10° 58° (ENE) 2,334 7.1 -17.8°
Maximum altitude 07:42:21 24° 109° (ESE) 1,594 6.6 -16.9°
Drops below altitude 10° 07:46:24 10° 161° (SSE) 2,348 6.9 -16.0°
Sets 07:49:07 0° 174° (S) 3,281 7.5 -15.4°
